Погода в Зигене

Германия     50°52′13″N   8°00′50″E
темп.,
°C
ветер,
м/с
пор.,
м/с
влажн.,
%
обл.,
%
осадки,
мм/ч
давл.,
гПа
погр.,
м
16 сентября, чт
чт1623:00+15зсз389886 0.1 1013497
02:00+13з3797100 0.1 1015538
05:00+13зсз3897100 0.1 1015488
08:00+11зсз3898100 0.1 1016411
11:00+11зсз3796100 0.0 1017496
14:00+13з3695100 0.1 1017575
17:00+14зсз369098 0.1 1017500
20:00+11зюз11950 0.2 101811
17 сентября, пт
пт1723:00+12зюз119197 0.0 101817
02:00+11з129162 0.0 101840
05:00+9з11973 0.0 101812
08:00+9з11976 0.0 101821
11:00+14зсз127898 0.0 1017424
14:00+17сз236458 0.1 1016930
17:00+16сз237073 0.2 1015494
20:00+12ссз119035 0.3 101511
18 сентября, сб
сб1823:00+10с119446 0.0 101611
02:00+10всв119586 0.0 101610
05:00+9всв11954 0.0 101610
08:00+10всв11940 0.0 101610
11:00+17ссв11670 0.0 1016652
14:00+19ссз115126 0.0 10151587
17:00+19св115272 0.0 10141310
20:00+14в377686 0.0 1015271
19 сентября, вс
вс1923:00+12в388715 0.0 1015216
02:00+11в398722 0.0 1015216
05:00+11в389036 0.0 1014237
08:00+11в499523 0.0 1015352
11:00+15в57665 0.0 1016667
14:00+17в445575 0.0 10161379
17:00+16в345346 0.0 10161411
20:00+13всв386973 0.0 1018327
20 сентября, пн
пн2023:00+11в3107473 0.0 1020303
02:00+10в277973 0.0 1020214
05:00+10в258381 0.0 1021140
08:00+9в28856 0.0 1022228
11:00+15вюв47610 0.0 1021750
14:00+17в445353 0.0 10211490
17:00+15в3666100 0.0 1021519
20:00+14в2664100 0.0 1022179